User: anonymous   Login
Location: San Francisco
(37.7750°N, 122.4180°W)
Time: 08:50:52
(UTC-08:00)
Language:

GP-B - Orbit

View from above orbital plane
View from above orbital plane
View from above satellite
View from above satellite

Ground track
Ground track

The orbit data is extracted from the following two-line orbital elements,

1 28230U 04014A   17351.77363903  .00000129  00000-0  15418-4 0  9994
2 28230  89.8413 118.4501 0002147 104.8513 255.2947 14.78588652736224
Epoch (UTC): 17 December 2017 18:34:02
Eccentricity: 0.0002147
inclination: 89.8413°
perigee height: 632 km
apogee height: 635 km
right ascension of ascending node: 118.4501°
argument of perigee: 104.8513°
revolutions per day: 14.78588652
mean anomaly at epoch: 255.2947°
orbit number at epoch: 73622

The dashed part of the orbit path shows where the satellite is in the earth's shadow,  

DLR